• en Belgique
  • Liste des pays
  • À 7 jours
  • Température de l'eau
  • Carte satellitaire
  • Carte météo
  • Widgets météo
  • user-avatar
    Se connecter

    Météo par heure à Grachevka

    Ce jour, 17 Août, Vendredi

    Heure Température Précipitation Vent Pression Humidité
    00:00 +21°C° 0 mm 2 m/s 754 mmHg 70%
    01:00 +20°C° 0,1 mm 2 m/s 754 mmHg 74%
    02:00 +20°C° 0,1 mm 2 m/s 754 mmHg 78%
    03:00 +19°C° 0 mm 2 m/s 754 mmHg 83%
    04:00 +19°C° 1 mm 2 m/s 755 mmHg 86%
    05:00 +19°C° 1 mm 3 m/s 755 mmHg 88%
    06:00 +19°C° 1 mm 3 m/s 755 mmHg 91%
    07:00 +20°C° 0,2 mm 4 m/s 755 mmHg 86%
    08:00 +21°C° 0,2 mm 4 m/s 756 mmHg 82%
    09:00 +22°C° 0 mm 4 m/s 756 mmHg 76%
    10:00 +22°C° 0 mm 4 m/s 756 mmHg 71%
    11:00 +22°C° 0 mm 5 m/s 756 mmHg 67%
    12:00 +23°C° 0 mm 5 m/s 756 mmHg 63%
    13:00 +23°C° 0 mm 5 m/s 756 mmHg 62%
    14:00 +22°C° 0 mm 5 m/s 756 mmHg 61%
    15:00 +22°C° 0 mm 5 m/s 756 mmHg 60%
    16:00 +21°C° 0 mm 5 m/s 756 mmHg 63%
    17:00 +21°C° 0 mm 4 m/s 756 mmHg 66%
    18:00 +20°C° 0 mm 4 m/s 756 mmHg 68%
    19:00 +19°C° 0 mm 4 m/s 757 mmHg 71%
    20:00 +17°C° 0 mm 4 m/s 757 mmHg 73%
    21:00 +15°C° 0 mm 4 m/s 757 mmHg 75%
    22:00 +14°C° 0 mm 3 m/s 757 mmHg 76%
    23:00 +14°C° 0 mm 3 m/s 757 mmHg 77%

    Demain, 18 Août, Samedi

    Heure Température Précipitation Vent Pression Humidité
    00:00 +13°C° 0 mm 3 m/s 757 mmHg 78%
    01:00 +13°C° 0 mm 3 m/s 757 mmHg 78%
    02:00 +12°C° 0 mm 3 m/s 757 mmHg 79%
    03:00 +12°C° 0 mm 3 m/s 758 mmHg 79%
    04:00 +12°C° 0 mm 3 m/s 758 mmHg 77%
    05:00 +12°C° 0 mm 3 m/s 758 mmHg 75%
    06:00 +13°C° 0 mm 4 m/s 758 mmHg 73%
    07:00 +14°C° 0 mm 4 m/s 758 mmHg 67%
    08:00 +16°C° 0 mm 5 m/s 758 mmHg 62%
    09:00 +19°C° 0 mm 5 m/s 758 mmHg 56%
    10:00 +19°C° 0 mm 5 m/s 758 mmHg 54%
    11:00 +20°C° 0 mm 6 m/s 758 mmHg 53%
    12:00 +21°C° 0 mm 6 m/s 758 mmHg 51%
    13:00 +21°C° 0 mm 6 m/s 757 mmHg 51%
    14:00 +21°C° 0 mm 6 m/s 757 mmHg 51%
    15:00 +21°C° 0 mm 6 m/s 757 mmHg 52%
    16:00 +20°C° 0 mm 5 m/s 757 mmHg 56%
    17:00 +19°C° 0 mm 5 m/s 757 mmHg 60%
    18:00 +18°C° 0 mm 4 m/s 758 mmHg 65%
    19:00 +17°C° 0 mm 4 m/s 758 mmHg 68%
    20:00 +15°C° 0 mm 4 m/s 758 mmHg 72%
    21:00 +14°C° 0 mm 4 m/s 758 mmHg 75%
    22:00 +13°C° 0 mm 4 m/s 758 mmHg 78%
    23:00 +12°C° 0 mm 3 m/s 758 mmHg 80%

    Après-demain, 19 Août, Dimanche

    Heure Température Précipitation Vent Pression Humidité
    00:00 +11°C° 0 mm 3 m/s 758 mmHg 82%
    01:00 +11°C° 0 mm 3 m/s 758 mmHg 83%
    02:00 +10°C° 0 mm 3 m/s 758 mmHg 83%
    03:00 +10°C° 0 mm 3 m/s 759 mmHg 83%
    04:00 +10°C° 0 mm 4 m/s 759 mmHg 80%
    05:00 +10°C° 0 mm 4 m/s 759 mmHg 77%
    06:00 +10°C° 0 mm 5 m/s 759 mmHg 74%
    07:00 +13°C° 0 mm 5 m/s 759 mmHg 69%
    08:00 +14°C° 0 mm 5 m/s 759 mmHg 64%
    09:00 +16°C° 0 mm 6 m/s 759 mmHg 59%
    10:00 +17°C° 0 mm 5 m/s 759 mmHg 56%
    11:00 +19°C° 0 mm 5 m/s 759 mmHg 54%
    12:00 +20°C° 0 mm 5 m/s 758 mmHg 51%
    13:00 +21°C° 0 mm 5 m/s 758 mmHg 50%
    14:00 +21°C° 0 mm 5 m/s 758 mmHg 50%
    15:00 +21°C° 0 mm 4 m/s 758 mmHg 49%
    16:00 +20°C° 0 mm 4 m/s 758 mmHg 55%
    17:00 +19°C° 0 mm 3 m/s 758 mmHg 60%
    18:00 +18°C° 0 mm 3 m/s 758 mmHg 65%
    19:00 +17°C° 0 mm 3 m/s 758 mmHg 69%
    20:00 +14°C° 0 mm 3 m/s 758 mmHg 74%
    21:00 +13°C° 0 mm 3 m/s 758 mmHg 78%
    22:00 +13°C° 0 mm 2 m/s 758 mmHg 80%
    23:00 +13°C° 0 mm 2 m/s 758 mmHg 81%

    20 Août, Lundi

    Heure Température Précipitation Vent Pression Humidité
    00:00 +12°C° 0 mm 2 m/s 758 mmHg 83%
    01:00 +12°C° 0 mm 2 m/s 758 mmHg 84%
    02:00 +12°C° 0 mm 2 m/s 758 mmHg 84%
    03:00 +10°C° 0 mm 2 m/s 758 mmHg 85%
    04:00 +12°C° 0 mm 2 m/s 758 mmHg 83%
    05:00 +12°C° 0 mm 2 m/s 759 mmHg 81%
    06:00 +13°C° 0 mm 2 m/s 759 mmHg 79%
    07:00 +15°C° 0 mm 2 m/s 759 mmHg 72%
    08:00 +17°C° 0 mm 2 m/s 759 mmHg 64%
    09:00 +19°C° 0 mm 2 m/s 759 mmHg 57%
    10:00 +20°C° 0 mm 2 m/s 758 mmHg 53%
    11:00 +20°C° 0 mm 2 m/s 758 mmHg 49%
    12:00 +21°C° 0 mm 2 m/s 758 mmHg 45%
    13:00 +23°C° 0 mm 2 m/s 758 mmHg 44%
    14:00 +23°C° 0 mm 2 m/s 757 mmHg 43%
    15:00 +24°C° 0 mm 2 m/s 757 mmHg 41%
    16:00 +23°C° 0 mm 2 m/s 757 mmHg 46%
    17:00 +22°C° 0 mm 1 m/s 757 mmHg 51%
    18:00 +21°C° 0 mm 1 m/s 757 mmHg 56%
    19:00 +19°C° 0 mm 1 m/s 757 mmHg 59%
    20:00 +18°C° 0 mm 1 m/s 757 mmHg 62%
    21:00 +14°C° 0 mm 0 m/s 757 mmHg 65%
    22:00 +14°C° 0 mm 0 m/s 757 mmHg 65%
    23:00 +15°C° 0 mm 1 m/s 757 mmHg 66%

    21 Août, Mardi

    Heure Température Précipitation Vent Pression Humidité
    00:00 +15°C° 0 mm 1 m/s 757 mmHg 66%
    01:00 +15°C° 0 mm 1 m/s 757 mmHg 67%
    02:00 +14°C° 0 mm 1 m/s 757 mmHg 67%
    03:00 +14°C° 0 mm 2 m/s 757 mmHg 68%
    04:00 +15°C° 0 mm 2 m/s 757 mmHg 67%
    05:00 +15°C° 0 mm 2 m/s 757 mmHg 67%
    06:00 +16°C° 0 mm 2 m/s 757 mmHg 67%
    07:00 +18°C° 0 mm 2 m/s 757 mmHg 63%
    08:00 +20°C° 0 mm 3 m/s 757 mmHg 59%
    09:00 +22°C° 0 mm 3 m/s 757 mmHg 55%
    10:00 +24°C° 0 mm 3 m/s 757 mmHg 51%
    11:00 +25°C° 0 mm 4 m/s 757 mmHg 48%
    12:00 +27°C° 0 mm 4 m/s 756 mmHg 45%
    13:00 +27°C° 0 mm 4 m/s 756 mmHg 44%
    14:00 +27°C° 0 mm 4 m/s 756 mmHg 44%
    15:00 +28°C° 0 mm 4 m/s 755 mmHg 43%
    16:00 +27°C° 0 mm 3 m/s 755 mmHg 48%
    17:00 +25°C° 0 mm 3 m/s 755 mmHg 53%
    18:00 +24°C° 0 mm 2 m/s 755 mmHg 58%
    19:00 +23°C° 0 mm 2 m/s 755 mmHg 59%
    20:00 +21°C° 0 mm 2 m/s 755 mmHg 61%
    21:00 +20°C° 0 mm 3 m/s 755 mmHg 63%
    22:00 +20°C° 0 mm 3 m/s 755 mmHg 64%
    23:00 +19°C° 0 mm 3 m/s 755 mmHg 64%

    22 Août, Mercredi

    Heure Température Précipitation Vent Pression Humidité
    00:00 +19°C° 0 mm 3 m/s 755 mmHg 65%
    01:00 +19°C° 0 mm 3 m/s 754 mmHg 67%
    02:00 +18°C° 0 mm 3 m/s 754 mmHg 68%
    03:00 +18°C° 0 mm 3 m/s 754 mmHg 69%
    04:00 +18°C° 0 mm 3 m/s 754 mmHg 69%
    05:00 +18°C° 0 mm 3 m/s 754 mmHg 69%
    06:00 +19°C° 0 mm 4 m/s 754 mmHg 69%
    07:00 +21°C° 0 mm 4 m/s 754 mmHg 62%
    08:00 +23°C° 0 mm 5 m/s 754 mmHg 56%
    09:00 +26°C° 0 mm 6 m/s 754 mmHg 49%
    10:00 +27°C° 0 mm 6 m/s 754 mmHg 48%
    11:00 +28°C° 0 mm 6 m/s 753 mmHg 46%
    12:00 +29°C° 0 mm 7 m/s 753 mmHg 44%
    13:00 +29°C° 0,1 mm 7 m/s 753 mmHg 45%
    14:00 +29°C° 0,1 mm 7 m/s 752 mmHg 46%
    15:00 +29°C° 0,1 mm 7 m/s 752 mmHg 47%
    16:00 +28°C° 0 mm 6 m/s 752 mmHg 52%
    17:00 +27°C° 0 mm 5 m/s 752 mmHg 57%
    18:00 +26°C° 0 mm 4 m/s 752 mmHg 62%
    19:00 +25°C° 0,2 mm 4 m/s 752 mmHg 66%
    20:00 +23°C° 0,2 mm 4 m/s 752 mmHg 71%
    21:00 +21°C° 0,2 mm 4 m/s 752 mmHg 76%
    22:00 +21°C° 0,1 mm 4 m/s 752 mmHg 80%
    23:00 +20°C° 0,1 mm 3 m/s 752 mmHg 85%
    Voir plus